This demonstration page uses our WeatherBlox Daily Observations layout. Learn more.

Left ArrowRight Arrow

Hourly Observations for July 17, 2017

Temp ( °F °C ) Dew Point ( °F °C ) Humidity (%) Winds ( mph kmh ) Pressure ( in mb ) Visibility ( mi km ) Precip ( " mm )
12:53 am 00:53 Clear 73 22.8 68 20 84 84 ESE 3 6 29.90 1012 10 16 0.00 0.00
1:53 am 01:53 Clear 72 22.2 68 20 87 87 N 3 6 29.89 1012 10 16 0.00 0.00
2:53 am 02:53 Clear 70 21.1 67 19.4 90 90 NE 3 6 29.88 1012 10 16 0.00 0.00
3:53 am 03:53 Clear 69 20.6 67 19.4 93 93 N 6 9 29.87 1011 10 16 0.00 0.00
4:53 am 04:53 Clear 69 20.6 66 18.9 90 90 ENE 3 6 29.87 1011 10 16 0.00 0.00
5:53 am 05:53 Clear 68 20 64 17.8 87 87 ENE 7 11 29.88 1012 10 16 0.00 0.00
6:53 am 06:53 Clear 68 20 64 17.8 87 87 NE 3 6 29.89 1012 10 16 0.00 0.00
7:31 am 07:31 Mostly Sunny 69 20.6 65 18.3 87 87 NE 5 7 29.91 1013 10 16 0.00 0.00
7:53 am 07:53 Mostly Sunny 71 21.7 65 18.3 81 81 N 3 6 29.91 1013 10 16 0.00 0.00
8:53 am 08:53 Sunny 77 25 64 17.8 64 64 Calm 29.92 1013 10 16 0.00 0.00
9:53 am 09:53 Sunny 81 27.2 63 17.2 54 54 SE 7 11 29.93 1014 10 16 0.00 0.00
10:53 am 10:53 Sunny 83 28.3 61 16.1 48 48 SE 8 13 29.92 1013 10 16 0.00 0.00
11:53 am 11:53 Sunny 86 30 62 16.7 45 45 VRB 3 6 29.91 1013 10 16 0.00 0.00
12:53 pm 12:53 Sunny 89 31.7 61 16.1 39 39 VRB 7 11 29.89 1012 10 16 0.00 0.00
1:53 pm 13:53 Sunny 91 32.8 60 15.6 35 35 ESE 6 9 29.88 1012 10 16 0.00 0.00
2:53 pm 14:53 Sunny 92 33.3 59 15 33 33 VRB 3 6 29.85 1011 10 16 0.00 0.00
3:53 pm 15:53 Partly Cloudy 94 34.4 58 14.4 30 30 undefined N/A 29.81 1009 10 16 0.00 0.00
4:53 pm 16:53 Sunny 95 35 56 13.3 27 27 SSW 3 6 29.78 1009 10 16 0.00 0.00
5:53 pm 17:53 Sunny 96 35.6 55 12.8 25 25 VRB 7 11 29.78 1008 10 16 0.00 0.00
6:53 pm 18:53 Partly Cloudy 96 35.6 55 12.8 25 25 SSE 10 17 29.76 1008 10 16 0.00 0.00
7:53 pm 19:53 Sunny 95 35 55 12.8 26 26 ESE 9 15 29.76 1008 10 16 0.00 0.00
8:31 pm 20:31 Partly Cloudy with Nearby Thunderstorms 94 34.4 55 12.8 27 27 ESE 7 11 29.65 1004 10 16 0.00 0.00
8:53 pm 20:53 Cloudy with Nearby Thunderstorms 86 30 59 15 40 40 ESE 18 30 29.80 1009 10 16 0.00 0.00
9:05 pm 21:05 Cloudy with Thunderstorms 83 28.3 64 17.8 53 53 ESE 10 17 29.74 1007 10 16 0.00 0.00
9:32 pm 21:32 Mostly Cloudy with Nearby Thunderstorms 80 26.7 70 21.1 71 71 NE 5 7 29.80 1009 10 16 0.04 1.02
9:42 pm 21:42 Mostly Cloudy 80 26.7 70 21.1 71 71 NNE 6 9 29.80 1009 10 16 0.04 1.02
9:53 pm 21:53 Partly Cloudy 80 26.7 71 21.7 74 74 ENE 3 6 29.83 1010 10 16 0.04 1.02
10:53 pm 22:53 Partly Cloudy 82 27.8 68 20 63 63 SE 8 13 29.85 1011 10 16 0.00 0.00
11:53 pm 23:53 Mostly Clear 80 26.7 66 18.9 62 62 ESE 9 15 29.87 1012 10 16 0.00 0.00

Powered by AerisWeather